Warning: Javascript must be enabled to use all the features on this page!


Page Loading - Please Wait...

Click to hideNews Bulletins

Peak Streamflow for the Nation

USGS 02489500 Pearl River near Bogalusa, LA

Washington Parish, Louisiana
Hydrologic Unit Code 03180004
Latitude  30°47'35", Longitude  89°49'15" NAD27
Drainage area 6,573.00  square miles
Gage datum 54.64 feet above NAVD88
Output formats
Table
Graph
Tab-separated file
peakfq (watstore) format
Reselect output format
Water
Year
Date Gage
Height
(feet)
Stream-
flow
(cfs)
1938 1938-04-11    
1939 1939-06-04 19.28 38,800
1940 1940-07-15 19.66 45,500
1941 1941-01-02 18.84 28,200
1942 1942-03-25 18.26 21,500
1943 1943-03-23 20.22 57,800
1944 1944-04-12 19.68 45,700
1945 1945-03-12 19.28 36,500
1946 1946-02-26 20.05 53,000
1947 1947-01-25 20.30 60,000
1948 1948-03-07 20.27 59,200
1949 1949-04-05 20.13 54,400
1950 1950-01-13 20.32 55,100
1951 1951-04-17 19.50 37,700
1952 1952-03-15 16.41 13,200
1953 1953-05-24 20.14 50,400
1954 1953-12-15 18.51 22,500
1955 1955-04-16 20.15 52,700
1956 1956-03-22 19.28 33,700
1957 1957-04-10 19.22 32,400
1958 1958-05-18 19.74 42,600
1959 1959-02-07 18.50 24,000
1960 1960-03-22 19.30 34,000
1961 1961-02-23 21.70 88,2005
1962 1961-12-29 20.98 70,8005
1963 1963-01-24 17.95 20,2005
1964 1964-05-03 19.59 39,4005
1965 1965-02-19 19.58 39,4005
1966 1966-02-17 20.58 61,3005
1967 1967-05-08   24,6001,5
1968 1968-01-03   31,3001,5
1969 1969-04-29 19.94 44,6005
1970 1970-05-07 18.30 20,5005
1971 1971-03-10 19.61 39,7005
1972 1971-12-13 19.91 45,2005
1973 1973-03-30 20.47 58,0005
1974 1974-04-17 22.13 99,0005
1975 1975-05-12 20.38 55,8005
1976 1976-04-08 20.41 56,5005
1977 1977-04-22 20.12 49,9005
1978 1978-02-03 19.52 37,3005
1979 1979-04-24 23.23 129,0005
1980 1980-03-31 22.42 107,0005
1981 1981-04-12 18.96 27,8005
1982 1982-02-21 19.31 34,4005
1983 1983-04-08 22.78 114,0005
1984 1984-03-11 19.90 41,3005
1985 1985-03-03 19.81 39,9005
1986 1985-11-01 19.70 42,2005
1987 1987-03-03 21.18 71,2005
1988 1988-04-03 20.11 49,0005
1989 1989-05-26 20.33 40,2005
1990 1990-01-29 21.77 98,7005
1991 1991-05-11 22.17 98,5005
1992 1992-02-18 19.93 36,6005
1993 1993-01-21 20.93 65,5005
1994 1994-02-01 20.89 64,1005
1995 1995-03-20 20.73 58,7005
1996 1996-02-09 20.57 53,7005
1997 1997-05-02 20.68 57,1005
1998 1998-01-12   56,2001,5
1999 1999-03-17   41,5001,5
2000 2000-04-15 20.32 37,4005
2001 2001-03-06 21.68 65,0005
2002 2002-04-14 20.08 34,0005
2003 2003-02-27 21.77 82,8005
2004 2004-02-16 21.50 75,7005
2005 2004-12-16 20.69 49,4005
2006 2006-03-10 20.49 39,8005
2007 2007-01-12 20.58 41,7005
2008 2008-02-29 20.54 40,9005
2009 2009-03-30 21.99 71,8005
2010 2009-12-20 21.13 54,3005
2011 2011-03-15 20.85 48,1005
2012 2012-09-03 20.99 51,7005
2013 2013-02-26 21.14 54,5005
2014 2014-04-15 21.73 60,9005
2015 2015-03-09 20.50 31,8005
2016 2016-03-13 22.75 133,0005
2017 2017-04-14 20.90 39,0005
2018 2018-04-16 20.77 36,4005
2019 2018-12-30 21.23 46,6005
2020 2020-02-25 22.60 102,000
2021 2021-04-17 21.36 50,100
?
  Peak Streamflow Qualification Codes.